Regional Weather Roundup
Issued by NWS

Home | Current Version | Previous Version | Graphics & Text | Print | Product List | Glossary Off
Versions: 1 2 3 4 5 6 7 8 9 10 11 12 13 14 15 16 17 18 19 20 21 22 23 24 25 26 27 28 29 30 31 32 33 34 35 36 37 38 39 40 41 42 43 44 45 46 47 48 49 50

000
ASUS43 KMKX 271711
RWRWI

WISCONSIN REGIONAL WEATHER ROUNDUP
NATIONAL WEATHER SERVICE MILWAUKEE/SULLIVAN WI
1200 PM CDT TUE JUN 27 2017

NOTE: "FAIR" INDICATES FEW OR NO CLOUDS BELOW 12,000 FEET WITH NO
SIGNIFICANT WEATHER AND/OR OBSTRUCTIONS TO VISIBILITY.

WIZ001-002-006>008-014>016-023>028-271800-
NORTHWEST WISCONSIN

CITY           SKY/WX    TMP DP  RH WIND       PRES   REMARKS
SUPERIOR ARPT  NOT AVBL
ASHLAND        SUNNY     72  51  47 W9        30.01F
HAYWARD        SUNNY     69  43  38 VRB6      30.03F
SIREN          SUNNY     71  42  35 SW9       30.02F
CUMBERLAND     SUNNY     68  41  37 SW8       30.05F
RICE LAKE      SUNNY     70  44  39 W8G26     30.06F
CHETEK         SUNNY     71  46  40 SW6       30.04F
LADYSMITH      SUNNY     70  45  40 W8        30.06F
EAU CLAIRE     SUNNY     71  44  37 S12G17    30.05F
MENOMONIE      SUNNY     72  45  38 SW9       30.05F
NEW RICHMOND   SUNNY     71  40  33 S6        30.04F
OSCEOLA        SUNNY     72  42  34 W7        30.06F
$$

WIZ003>005-009-010-017-018-271800-
NORTH CENTRAL WISCONSIN

CITY           SKY/WX    TMP DP  RH WIND       PRES   REMARKS
MANITOWISH WTR PTSUNNY   67  46  45 W7G16     30.03F
ARBOR VITAE    MOSUNNY   70  48  45 W10G16    30.03S
WOODRUFF       MOSUNNY   70  48  45 W10G16    30.03S
RHINELANDER    PTSUNNY   68  48  48 NW10      30.04F
EAGLE RIVER    MOSUNNY   67  42  41 NW6       30.03S
LAND O LAKES   SUNNY     68  44  42 NW6       30.04F
PHILLIPS       MOSUNNY   68  47  46 NW5       30.04S
TOMAHAWK       NOT AVBL
MEDFORD        MOSUNNY   67  46  46 W9        30.06F
MERRILL        MOSUNNY   70  47  43 W12G17    30.05F
$$

WIZ029-030-035-036-043>047-271800-
CENTRAL WISCONSIN

CITY           SKY/WX    TMP DP  RH WIND       PRES   REMARKS
WAUSAU         MOSUNNY   71  46  40 W12       30.04F
MOSINEE        PTSUNNY   70  46  43 NW10G21   30.07F
MARSHFIELD     SUNNY     70  46  42 W10       30.06F
STEVENS POINT  MOSUNNY   69  45  42 W10G17    30.07S
WAUPACA        SUNNY     73  45  36 W12       30.06F
WAUTOMA        SUNNY     72  46  39 NW14      30.07F
WISC RAPIDS    MOSUNNY   72  46  39 W13       30.08F
CAMP DOUGLAS   PTSUNNY   72  48  43 W8        30.08F
$$

WIZ011>013-019>022-031-037>040-048>050-271800-
NORTHEAST WISCONSIN

CITY           SKY/WX    TMP DP  RH WIND       PRES   REMARKS
ANTIGO         PTSUNNY   67  49  51 W12       30.05S
SHAWANO        PTSUNNY   73  47  40 W8        30.03F
OCONTO         PTSUNNY   70  51  50 W6        30.02F
STURGEON BAY     N/A     68  49  50 VRB5      30.04F
GREEN BAY      SUNNY     72  56  57 VRB7      30.04F
MANITOWOC      SUNNY     70  49  47 W7        30.06F
APPLETON       MOSUNNY   70  45  40 W12G18    30.05F
CLINTONVILLE   MOSUNNY   70  43  37 NW10G17   30.04F
OSHKOSH        MOSUNNY   71  48  43 W10       30.06F
$$

WIZ032>034-041-042-053>061-271800-
SOUTHWEST WISCONSIN

CITY           SKY/WX    TMP DP  RH WIND       PRES   REMARKS
LA CROSSE      SUNNY     76  45  33 VRB6      30.07F
SPARTA         MOSUNNY   71  46  40 NW3       30.09F
VIROQUA        SUNNY     69  45  41 S3        30.10F
BOSCOBEL       MOSUNNY   72  44  36 NW6       30.10F
PRAIRIE DU CHI SUNNY     71  41  33 SW3       30.09F
PLATTEVILLE    SUNNY     71  42  36 S7        30.12F
$$

WIZ056-057-062-063-064-067-068-271800-
SOUTH CENTRAL WISCONSIN

CITY           SKY/WX    TMP DP  RH WIND       PRES   REMARKS
REEDSBURG      SUNNY     71  47  42 NW8       30.09F
BARABOO/DELLS  MOSUNNY   68  44  42 W7        30.09F
LONE ROCK      SUNNY     73  44  35 MISG      30.10F
MINERAL POINT  SUNNY     72  41  33 W6        30.12F
MADISON        MOSUNNY   70  47  43 NW7       30.10F
MIDDLETON      SUNNY     72  47  42 W10       30.10F
WATERTOWN      NOT AVBL
MONROE         SUNNY     70  37  30 CALM      30.11F
JANESVILLE     MOSUNNY   73  45  35 W10       30.11F
$$

WIZ051-052-058>065-066-070>072-271800-
SOUTHEAST WISCONSIN

CITY           SKY/WX    TMP DP  RH WIND       PRES   REMARKS
MILWAUKEE      MOSUNNY   72  46  39 W14G21    30.09F
WAUKESHA       MOSUNNY   68  46  45 W10G16    30.12F
MILWAUKEE/TIMM MOSUNNY   70  45  40 W7        30.10F
RACINE         MOSUNNY   72  47  40 W7G16     30.11F
KENOSHA        MOSUNNY   72  49  44 VRB7G17   30.11F
FOND DU LAC    SUNNY     72  48  42 W10       30.07F
SHEBOYGAN      SUNNY     71  52  50 W9        30.07F
WEST BEND      MOSUNNY   68  45  42 W5        30.08F
JUNEAU         SUNNY     69  49  50 W9        30.10F
$$

LSZ147-162-271800-
LAKE SUPERIOR

STATION/POSITION TIME  TEMP    WIND        PRES    WAVE
                       AIR SEA DIR/SP/G            HT/PER
                 (UTC) (F)     (DEG/KT/KT) (MB)    (FT/S)
W MID LAKE BUOY  1650   44 39  220/  8/ 10 1015.6F   1
DEVILS ISLAND    1700   63     220/  5/  7 1015.2F
SAXON HARBOR     1640   70     250/  2/ 10 1015.6F
$$

LMZ867-665-643>646-271800-
LAKE MICHIGAN

STATION/POSITION TIME  TEMP    WIND        PRES    WAVE
                       AIR SEA DIR/SP/G            HT/PER
                 (UTC) (F)     (DEG/KT/KT) (MB)    (FT/S)
CHAMBERS ISLAND  1640   66     210/  5/  9 1016.3S
S GREEN BAY BUOY 1700   64     210/ 10/ 10 1016.6
N MID LAKE BUOY  1650   57 57  250/  6/  8 1017.3F   1/ 4
NORTHPORT PIER   1640   65     330/  7/  9 1016.6S
KEWAUNEE LAKESHO 1642   68     290/  6/  9 1016.9F
SHEBOYGAN LAKESH 1700   68     300/ 10/ 11 1017.7F
PORT WASHINGTON  1630   72     290/  8/ 14 1019.3F
ATWATER BUOY     1609   62 56  300/  4/  4 1019.1F
MILWAUKEE LAKESH 1650   68     310/  7/ 11   N/A
S MID LAKE BUOY  1650   61 61  270/  6/  8 1019.7F   1/ 3
KENOSHA   LAKESH 1700   69     290/ 11/ 14 1019.0
$$

TC  - TEMPERATURE IN CELSIUS
VSB - VISIBILITY IN STATUTE MILES
WCI - WIND CHILL INDEX
HX  - HEAT INDEX





USA.gov is the U.S. government's official web portal to all federal, state and local government web resources and services.